Weather History for KNBT - April, 2014

Change the Weather History Date:

Tuesday, April 1, 2014

  Actual Average (KMRH) Record (KMRH)
Temperature  
Mean Temperature 62 °F -  
Max Temperature 75 °F 68 °F 82 °F (1977)
Min Temperature 48 °F 45 °F 32 °F (1987)
Degree Days  
Heating Degree Days 4    
Growing Degree Days 12 (Base 50)    
Moisture  
Dew Point 47 °F    
Average Humidity 76    
Maximum Humidity 97    
Minimum Humidity 23    
Precipitation  
Precipitation 0.00 in - - ()
Sea Level Pressure  
Sea Level Pressure 30.12 in    
Wind  
Wind Speed 5 mph (SSW)    
Max Wind Speed 17 mph    
Max Gust Speed 24 mph    
Visibility 6 miles    
Events Fog    
Averages and records for this station are not official NWS values.
T = Trace of Precipitation, MM = Missing Value Source: NWS Daily Summary

Daily Weather History Graph

Daily Weather History Graph

Search for Another Location

Airport or City:

Trip Planner

Search our weather history database for the weather conditions in past years. The results will help you decide how hot, cold, wet, or windy it might be!

Date:

Astronomy

Apr. 01, 2014 Rise Set
Actual Time 6:52 AM EDT 7:27 PM EDT
Civil Twilight 6:27 AM EDT 7:52 PM EDT
Nautical Twilight 5:57 AM EDT 8:22 PM EDT
Astronomical Twilight 5:26 AM EDT 8:53 PM EDT
Moon 7:58 AM EDT (4/1) 9:41 PM EDT (4/1)
Length of Visible Light 13h 25m
Length of Day
12h 34m
Waxing Crescent, 4% of the Moon is Illuminated
Apr 1
Waxing Crescent
Apr 7
First Quarter
Apr 15
Full
Apr 22
Last Quarter
Apr 29
New

Hourly Weather History & Observations

Time (EDT) Temp. Dew Point Humidity Pressure Visibility Wind Dir Wind Speed Gust Speed Precip Events Conditions
12:56 AM 53.1 °F 50.0 °F 89% 30.13 in 10.0 mi SE 5.8 mph - N/A   Clear
1:35 AM 50.0 °F 48.0 °F 93% 30.12 in 2.0 mi Calm Calm - N/A   Clear
1:49 AM 48.9 °F 46.9 °F 93% 30.12 in 1.5 mi SSW 3.5 mph - N/A   Clear
1:52 AM 48.2 °F 46.4 °F 93% 30.12 in 3.0 mi South 3.5 mph - N/A   Clear
1:56 AM 48.0 °F 46.0 °F 93% 30.13 in 4.0 mi Calm Calm - N/A   Clear
2:54 AM 51.8 °F 48.2 °F 88% 30.11 in 2.5 mi South 3.5 mph - N/A   Clear
2:56 AM 50.0 °F 48.9 °F 96% 30.12 in 3.0 mi South 3.5 mph - N/A   Clear
3:34 AM 48.9 °F 48.0 °F 97% 30.10 in 1.8 mi SSW 4.6 mph - N/A   Clear
3:54 AM 50.0 °F 48.2 °F 94% 30.10 in 0.8 mi SSW 4.6 mph - N/A   Clear
3:56 AM 48.9 °F 48.0 °F 97% 30.12 in 0.8 mi SSW 4.6 mph - N/A   Clear
4:10 AM 50.0 °F 48.9 °F 96% 30.10 in 1.2 mi WSW 4.6 mph - N/A   Clear
4:34 AM 51.1 °F 50.0 °F 96% 30.10 in 3.0 mi WSW 5.8 mph - N/A   Clear
4:56 AM 51.1 °F 50.0 °F 96% 30.11 in 7.0 mi WSW 4.6 mph - N/A   Clear
5:56 AM 50.0 °F 48.9 °F 96% 30.12 in 3.0 mi SW 5.8 mph - N/A   Clear
6:03 AM 50.0 °F 48.9 °F 96% 30.10 in 1.5 mi SW 3.5 mph - N/A   Clear
6:12 AM 48.9 °F 48.0 °F 97% 30.10 in 0.5 mi SW 4.6 mph - N/A Fog Fog
6:27 AM 48.9 °F 48.0 °F 97% 30.10 in 1.5 mi WSW 4.6 mph - N/A   Clear
6:45 AM 50.0 °F 48.9 °F 96% 30.11 in 0.5 mi WSW 5.8 mph - N/A Fog Fog
6:53 AM 51.8 °F 48.2 °F 88% 30.12 in 2.5 mi WSW 5.8 mph - N/A   Clear
6:56 AM 51.1 °F 48.9 °F 92% 30.13 in 8.0 mi West 5.8 mph - N/A   Clear
7:56 AM 51.1 °F 50.0 °F 96% 30.16 in 8.0 mi West 3.5 mph - N/A   Clear
8:33 AM 54.0 °F 52.0 °F 93% 30.15 in 10.0 mi Calm Calm - N/A   Partly Cloudy
8:56 AM 57.9 °F 51.1 °F 78% 30.17 in 10.0 mi Calm Calm - N/A   Clear
9:56 AM 64.0 °F 50.0 °F 60% 30.17 in 10.0 mi ENE 3.5 mph - N/A   Partly Cloudy
10:56 AM 66.0 °F 41.0 °F 40% 30.17 in 10.0 mi East 5.8 mph - N/A   Clear
11:56 AM 69.1 °F 43.0 °F 39% 30.17 in 10.0 mi ENE 8.1 mph - N/A   Clear
12:56 PM 66.0 °F 39.0 °F 37% 30.15 in 10.0 mi ENE 9.2 mph - N/A   Clear
1:56 PM 66.0 °F 46.0 °F 48% 30.12 in 10.0 mi NE 8.1 mph - N/A   Clear
2:56 PM 75.0 °F 35.1 °F 23% 30.09 in 10.0 mi SSW 12.7 mph 20.7 mph N/A   Clear
3:56 PM 73.9 °F 36.0 °F 25% 30.07 in 10.0 mi SSW 12.7 mph - N/A   Clear
4:56 PM 73.9 °F 37.0 °F 26% 30.06 in 10.0 mi SSW 16.1 mph - N/A   Clear
5:56 PM 73.0 °F 41.0 °F 31% 30.06 in 10.0 mi SSW 17.3 mph 24.2 mph N/A   Clear
6:56 PM 69.1 °F 42.1 °F 38% 30.07 in 10.0 mi SSW 11.5 mph - N/A   Clear
7:56 PM 60.1 °F 48.0 °F 64% 30.09 in 10.0 mi South 5.8 mph - N/A   Clear
8:56 PM 59.0 °F 48.9 °F 69% 30.10 in 10.0 mi South 8.1 mph - N/A   Clear
9:56 PM 57.9 °F 52.0 °F 81% 30.11 in 10.0 mi SSW 5.8 mph - N/A   Clear
10:56 PM 57.0 °F 53.1 °F 87% 30.11 in 10.0 mi SSW 6.9 mph - N/A   Clear
11:56 PM 57.0 °F 53.1 °F 87% 30.10 in 10.0 mi South 3.5 mph - N/A   Clear